| time (UTC) | temp C | wind direction | speed KPH | gust KPH | rain 1hr cm | rain 24hr cm | rain mn cm | humidity % | barometer mb |
| 20260507040028 | 9 | 143 | 0.0 | 0.0 | 0.00 | 0.03 | 0.03 | 90 | 705.2 |
| 20260507034530 | 9 | 143 | 0.0 | 0.0 | 0.00 | 0.03 | 0.03 | 90 | 705.4 |
| 20260507033036 | 9 | 143 | 0.0 | 3.2 | 0.00 | 0.03 | 0.03 | 89 | 705.4 |
| 20260507031543 | 9 | 146 | 0.0 | 0.0 | 0.00 | 0.03 | 0.03 | 90 | 705.4 |
| 20260507030025 | 9 | 136 | 0.0 | 0.0 | 0.00 | 0.03 | 0.03 | 90 | 705.4 |
| 20260507024525 | 9 | 136 | 0.0 | 0.0 | 0.00 | 0.03 | 0.03 | 90 | 705.4 |
| 20260507023023 | 9 | 136 | 0.0 | 0.0 | 0.00 | 0.03 | 0.03 | 90 | 705.0 |
| 20260507021520 | 9 | 136 | 0.0 | 0.0 | 0.00 | 0.03 | 0.03 | 90 | 704.7 |
| 20260507020023 | 9 | 136 | 0.0 | 0.0 | 0.00 | 0.03 | 0.03 | 90 | 704.4 |
| 20260507014522 | 10 | 148 | 0.0 | 0.0 | 0.00 | 0.03 | 0.03 | 90 | 703.9 |
| 20260507013020 | 10 | 144 | 0.0 | 0.0 | 0.00 | 0.03 | 0.03 | 90 | 703.8 |
| 20260507011529 | 10 | 144 | 0.0 | 0.0 | 0.00 | 0.03 | 0.03 | 90 | 703.5 |
| 20260507010020 | 10 | 193 | 0.0 | 8.0 | 0.00 | 0.03 | 0.03 | 89 | 703.4 |
| 20260507004518 | 10 | 211 | 0.0 | 0.0 | 0.00 | 0.03 | 0.03 | 89 | 703.1 |
| 20260507003017 | 10 | 150 | 0.0 | 0.0 | 0.00 | 0.03 | 0.03 | 89 | 702.9 |
| 20260507001520 | 10 | 167 | 0.0 | 0.0 | 0.00 | 0.03 | 0.03 | 88 | 702.5 |
| 20260507000016 | 10 | 147 | 0.0 | 0.0 | 0.00 | 0.03 | 0.03 | 87 | 702.1 |
| 20260506234516 | 11 | 148 | 0.0 | 0.0 | 0.00 | 0.03 | 0.03 | 87 | 701.8 |
| 20260506233015 | 11 | 149 | 0.0 | 1.6 | 0.00 | 0.03 | 0.03 | 86 | 701.9 |
| 20260506231515 | 11 | 126 | 0.0 | 0.0 | 0.00 | 0.03 | 0.03 | 84 | 701.8 |
| 20260506230014 | 12 | 139 | 0.0 | 3.2 | 0.00 | 0.03 | 0.03 | 82 | 701.4 |
| 20260506224514 | 12 | 142 | 0.0 | 0.0 | 0.00 | 0.03 | 0.03 | 82 | 701.3 |
| 20260506223017 | 12 | 128 | 0.0 | 1.6 | 0.00 | 0.03 | 0.03 | 82 | 701.2 |
| 20260506221512 | 12 | 136 | 0.0 | 1.6 | 0.00 | 0.03 | 0.03 | 82 | 701.0 |
| 20260506220012 | 12 | 140 | 0.0 | 1.6 | 0.00 | 0.03 | 0.03 | 83 | 700.8 |
| 20260506214512 | 12 | 140 | 0.0 | 16.1 | 0.00 | 0.03 | 0.03 | 83 | 700.4 |
| 20260506213010 | 12 | 130 | 0.0 | 4.8 | 0.00 | 0.03 | 0.03 | 84 | 700.4 |
| 20260506211517 | 13 | 148 | 0.0 | 11.3 | 0.03 | 0.03 | 0.03 | 83 | 700.4 |
| 20260506210015 | 13 | 136 | 0.0 | 1.6 | 0.03 | 0.03 | 0.03 | 83 | 700.3 |
| 20260506204510 | 12 | 117 | 0.0 | 3.2 | 0.03 | 0.03 | 0.03 | 85 | 700.4 |
| 20260506203008 | 13 | 132 | 0.0 | 8.0 | 0.03 | 0.03 | 0.03 | 84 | 700.2 |
| 20260506201509 | 15 | 81 | 0.0 | 16.1 | 0.00 | 0.00 | 0.00 | 76 | 700.2 |
| 20260506200006 | 16 | 80 | 1.6 | 19.3 | 0.00 | 0.00 | 0.00 | 74 | 700.3 |
| 20260506194506 | 16 | 132 | 0.0 | 19.3 | 0.00 | 0.00 | 0.00 | 73 | 700.3 |
| 20260506193004 | 17 | 105 | 0.0 | 16.1 | 0.00 | 0.00 | 0.00 | 69 | 700.2 |
| 20260506191502 | 18 | 108 | 1.6 | 20.9 | 0.00 | 0.00 | 0.00 | 68 | 700.5 |
| 20260506184555 | 15 | 116 | 0.0 | 8.0 | 0.00 | 0.00 | 0.00 | 76 | 701.1 |
| 20260506183054 | 16 | 126 | 0.0 | 17.7 | 0.00 | 0.00 | 0.00 | 73 | 701.3 |
| 20260506181551 | 16 | 140 | 0.0 | 6.4 | 0.00 | 0.00 | 0.00 | 72 | 701.6 |
| 20260506180049 | 16 | 121 | 0.0 | 12.9 | 0.00 | 0.00 | 0.00 | 72 | 701.8 |
| 20260506174546 | 16 | 134 | 0.0 | 4.8 | 0.00 | 0.00 | 0.00 | 72 | 702.2 |
| 20260506173121 | 15 | 117 | 0.0 | 3.2 | 0.00 | 0.00 | 0.00 | 72 | 702.4 |
| 20260506171542 | 15 | 142 | 0.0 | 22.5 | 0.00 | 0.00 | 0.00 | 73 | 702.6 |
| 20260506170041 | 16 | 132 | 0.0 | 1.6 | 0.00 | 0.00 | 0.00 | 70 | 703.0 |
| 20260506164538 | 16 | 96 | 0.0 | 6.4 | 0.00 | 0.00 | 0.00 | 72 | 703.2 |
| 20260506163039 | 14 | 92 | 0.0 | 11.3 | 0.00 | 0.00 | 0.00 | 76 | 703.5 |
| 20260506161535 | 15 | 116 | 0.0 | 3.2 | 0.00 | 0.00 | 0.00 | 76 | 703.6 |
| 20260506160033 | 15 | 95 | 0.0 | 3.2 | 0.00 | 0.00 | 0.00 | 76 | 703.8 |
| 20260506154530 | 15 | 150 | 0.0 | 3.2 | 0.00 | 0.00 | 0.00 | 76 | 704.0 |
| 20260506153028 | 15 | 125 | 0.0 | 1.6 | 0.00 | 0.00 | 0.00 | 77 | 704.1 |
| 20260506151527 | 14 | 138 | 0.0 | 0.0 | 0.00 | 0.00 | 0.00 | 80 | 704.2 |
| 20260506150021 | 12 | 132 | 0.0 | 0.0 | 0.00 | 0.00 | 0.00 | 85 | 704.5 |
| 20260506144518 | 12 | 126 | 0.0 | 0.0 | 0.00 | 0.00 | 0.00 | 86 | 704.6 |
| 20260506143023 | 11 | 134 | 0.0 | 0.0 | 0.00 | 0.00 | 0.00 | 87 | 704.6 |
| 20260506141514 | 11 | 127 | 0.0 | 1.6 | 0.00 | 0.00 | 0.00 | 87 | 704.6 |
| 20260506140014 | 11 | 136 | 0.0 | 0.0 | 0.00 | 0.00 | 0.00 | 89 | 704.6 |
| 20260506134507 | 10 | 132 | 0.0 | 0.0 | 0.00 | 0.00 | 0.00 | 90 | 704.7 |
| 20260506133003 | 10 | 104 | 0.0 | 0.0 | 0.00 | 0.00 | 0.00 | 90 | 704.7 |
| 20260506131503 | 10 | 103 | 0.0 | 0.0 | 0.00 | 0.00 | 0.00 | 90 | 704.8 |
| 20260506130140 | 10 | 160 | 0.0 | 0.0 | 0.00 | 0.00 | 0.00 | 90 | 704.6 |
| 20260506124600 | 10 | 168 | 0.0 | 0.0 | 0.00 | 0.00 | 0.00 | 90 | 704.3 |
| 20260506123050 | 9 | 170 | 0.0 | 0.0 | 0.00 | 0.00 | 0.00 | 90 | 704.2 |
| 20260506121546 | 9 | 171 | 0.0 | 0.0 | 0.00 | 0.00 | 0.00 | 90 | 704.0 |
| 20260506120052 | 9 | 174 | 0.0 | 0.0 | 0.00 | 0.00 | 0.00 | 90 | 704.1 |
| 20260506114533 | 9 | 174 | 0.0 | 0.0 | 0.00 | 0.00 | 0.00 | 91 | 704.0 |
| 20260506113026 | 8 | 174 | 0.0 | 0.0 | 0.00 | 0.00 | 0.00 | 91 | 704.0 |
| 20260506111524 | 8 | 174 | 0.0 | 0.0 | 0.00 | 0.00 | 0.00 | 91 | 704.1 |
| 20260506110024 | 8 | 127 | 0.0 | 0.0 | 0.00 | 0.00 | 0.00 | 91 | 704.0 |
| 20260506104522 | 9 | 161 | 0.0 | 0.0 | 0.00 | 0.00 | 0.00 | 91 | 703.7 |
| 20260506103022 | 8 | 161 | 0.0 | 0.0 | 0.00 | 0.00 | 0.00 | 91 | 703.6 |
| 20260506101533 | 8 | 162 | 0.0 | 0.0 | 0.00 | 0.00 | 0.00 | 91 | 703.4 |
| 20260506100019 | 8 | 163 | 0.0 | 0.0 | 0.00 | 0.00 | 0.00 | 91 | 703.4 |
| 20260506094523 | 9 | 163 | 0.0 | 0.0 | 0.00 | 0.00 | 0.00 | 91 | 703.3 |
| 20260506093021 | 9 | 162 | 0.0 | 0.0 | 0.00 | 0.00 | 0.00 | 91 | 703.2 |
| 20260506091517 | 9 | 161 | 0.0 | 0.0 | 0.00 | 0.00 | 0.00 | 91 | 703.2 |
| 20260506090017 | 9 | 161 | 0.0 | 0.0 | 0.00 | 0.00 | 0.00 | 91 | 703.1 |
| 20260506084516 | 9 | 161 | 0.0 | 0.0 | 0.00 | 0.00 | 0.00 | 90 | 703.2 |
| 20260506083016 | 9 | 161 | 0.0 | 0.0 | 0.00 | 0.00 | 0.00 | 91 | 703.1 |
| 20260506081514 | 9 | 161 | 0.0 | 0.0 | 0.00 | 0.00 | 0.00 | 91 | 703.2 |
| 20260506073027 | 9 | 157 | 0.0 | 0.0 | 0.00 | 0.00 | 0.00 | 91 | 703.4 |
| 20260506071511 | 9 | 157 | 0.0 | 0.0 | 0.00 | 0.00 | 0.00 | 91 | 703.4 |
| 20260506061504 | 9 | 186 | 0.0 | 0.0 | 0.00 | 0.00 | 0.00 | 90 | 704.0 |
| 20260506044705 | 10 | 189 | 0.0 | 0.0 | 0.00 | 0.00 | 0.00 | 90 | 704.8 |
| 20260506043109 | 9 | 189 | 0.0 | 0.0 | 0.00 | 0.00 | 0.00 | 90 | 704.7 |
| 20260506041603 | 10 | 171 | 0.0 | 0.0 | 0.00 | 0.00 | 0.00 | 90 | 704.6 |